| time (UTC) | temp F | wind direction | speed MPH | gust MPH | rain 1hr in | rain 24hr in | rain mn in | humidity % | barometer mb |
| 20260503044556 | 35 | 0 | 0.0 | 1.0 | 0.00 | 0.00 | 0.00 | 82 | 1016.2 |
| 20260503043102 | 36 | 0 | 0.0 | 2.0 | 0.00 | 0.00 | 0.00 | 82 | 1016.2 |
| 20260503041556 | 35 | 0 | 0.0 | 3.0 | 0.00 | 0.00 | 0.00 | 84 | 1016.2 |
| 20260503040100 | 36 | 0 | 0.0 | 1.0 | 0.00 | 0.00 | 0.00 | 83 | 1016.2 |
| 20260503034554 | 37 | 0 | 0.0 | 0.0 | 0.00 | 0.00 | 0.00 | 83 | 1016.2 |
| 20260503033055 | 37 | 0 | 0.0 | 0.0 | 0.00 | 0.00 | 0.00 | 83 | 1016.3 |
| 20260503031555 | 37 | 0 | 0.0 | 0.0 | 0.00 | 0.00 | 0.00 | 83 | 1016.3 |
| 20260503024557 | 38 | 0 | 0.0 | 2.0 | 0.00 | 0.00 | 0.00 | 82 | 1016.4 |
| 20260503023103 | 38 | 0 | 0.0 | 3.0 | 0.00 | 0.00 | 0.00 | 82 | 1016.5 |
| 20260503021601 | 38 | 290 | 1.0 | 2.0 | 0.00 | 0.00 | 0.00 | 81 | 1016.6 |
| 20260503020101 | 39 | 308 | 2.0 | 4.0 | 0.00 | 0.00 | 0.00 | 80 | 1016.4 |
| 20260503014600 | 39 | 313 | 1.0 | 4.0 | 0.00 | 0.00 | 0.00 | 78 | 1016.3 |
| 20260503013056 | 39 | 293 | 3.0 | 7.0 | 0.00 | 0.00 | 0.00 | 76 | 1016.4 |
| 20260503011559 | 40 | 349 | 3.0 | 6.0 | 0.00 | 0.00 | 0.00 | 76 | 1016.1 |
| 20260503004608 | 40 | 0 | 0.0 | 5.0 | 0.00 | 0.02 | 0.00 | 78 | 1015.8 |
| 20260503003110 | 41 | 307 | 2.0 | 8.0 | 0.00 | 0.02 | 0.00 | 76 | 1015.6 |
| 20260503001626 | 41 | 330 | 2.0 | 10.0 | 0.00 | 0.02 | 0.00 | 77 | 1015.5 |
| 20260503000056 | 41 | 319 | 3.0 | 7.0 | 0.00 | 0.02 | 0.00 | 76 | 1015.5 |
| 20260502234558 | 41 | 349 | 4.0 | 9.0 | 0.00 | 0.02 | 0.00 | 75 | 1015.2 |
| 20260502233055 | 41 | 349 | 5.0 | 9.0 | 0.00 | 0.02 | 0.00 | 75 | 1015.3 |
| 20260502231600 | 42 | 330 | 4.0 | 9.0 | 0.00 | 0.02 | 0.00 | 77 | 1015.2 |
| 20260502230055 | 42 | 313 | 3.0 | 10.0 | 0.00 | 0.02 | 0.00 | 76 | 1015.2 |
| 20260502224555 | 42 | 328 | 6.0 | 11.0 | 0.00 | 0.02 | 0.00 | 73 | 1015.2 |
| 20260502223100 | 43 | 338 | 5.0 | 14.0 | 0.00 | 0.02 | 0.00 | 75 | 1015.0 |
| 20260502221555 | 43 | 1 | 5.0 | 11.0 | 0.00 | 0.02 | 0.00 | 74 | 1014.9 |
| 20260502220057 | 43 | 334 | 7.0 | 11.0 | 0.00 | 0.02 | 0.00 | 73 | 1015.0 |
| 20260502214555 | 44 | 316 | 3.0 | 9.0 | 0.00 | 0.04 | 0.00 | 79 | 1014.9 |
| 20260502213106 | 42 | 268 | 3.0 | 9.0 | 0.00 | 0.04 | 0.00 | 83 | 1015.0 |
| 20260502211557 | 41 | 276 | 7.0 | 10.0 | 0.00 | 0.04 | 0.00 | 80 | 1014.8 |
| 20260502210057 | 43 | 283 | 6.0 | 12.0 | 0.00 | 0.04 | 0.00 | 76 | 1014.7 |
| 20260502204602 | 43 | 302 | 7.0 | 11.0 | 0.00 | 0.04 | 0.00 | 73 | 1014.5 |
| 20260502203058 | 44 | 352 | 6.0 | 11.0 | 0.00 | 0.04 | 0.00 | 72 | 1014.6 |
| 20260502201556 | 45 | 297 | 5.0 | 15.0 | 0.00 | 0.04 | 0.00 | 72 | 1014.6 |
| 20260502200119 | 46 | 288 | 7.0 | 13.0 | 0.00 | 0.04 | 0.00 | 72 | 1014.6 |
| 20260502194608 | 45 | 328 | 9.0 | 14.0 | 0.00 | 0.04 | 0.00 | 71 | 1014.6 |
| 20260502193100 | 47 | 343 | 6.0 | 14.0 | 0.00 | 0.04 | 0.00 | 70 | 1014.8 |
| 20260502191605 | 46 | 304 | 7.0 | 12.0 | 0.00 | 0.04 | 0.00 | 73 | 1015.0 |
| 20260502190057 | 44 | 304 | 6.0 | 13.0 | 0.00 | 0.04 | 0.00 | 78 | 1015.3 |
| 20260502184559 | 44 | 359 | 5.0 | 11.0 | 0.00 | 0.04 | 0.00 | 79 | 1015.2 |
| 20260502183102 | 44 | 330 | 8.0 | 16.0 | 0.00 | 0.04 | 0.00 | 77 | 1015.4 |
| 20260502181557 | 46 | 296 | 6.0 | 11.0 | 0.00 | 0.04 | 0.00 | 80 | 1015.3 |
| 20260502163101 | 44 | 252 | 7.0 | 11.0 | 0.00 | 0.04 | 0.00 | 76 | 1015.1 |
| 20260502161606 | 44 | 233 | 8.0 | 14.0 | 0.00 | 0.04 | 0.00 | 76 | 1015.1 |
| 20260502160106 | 44 | 240 | 7.0 | 11.0 | 0.00 | 0.04 | 0.00 | 81 | 1015.3 |
| 20260502151610 | 43 | 221 | 7.0 | 13.0 | 0.00 | 0.04 | 0.00 | 81 | 1015.2 |
| 20260502150130 | 45 | 239 | 6.0 | 13.0 | 0.00 | 0.04 | 0.00 | 77 | 1015.2 |
| 20260502130110 | 40 | 245 | 3.0 | 6.0 | 0.00 | 0.04 | 0.00 | 94 | 1015.5 |
| 20260502123102 | 40 | 219 | 3.0 | 5.0 | 0.00 | 0.04 | 0.00 | 96 | 1015.7 |
| 20260502121607 | 38 | 230 | 3.0 | 6.0 | 0.00 | 0.04 | 0.00 | 95 | 1015.8 |
| 20260502120114 | 37 | 186 | 2.0 | 4.0 | 0.00 | 0.04 | 0.00 | 96 | 1015.8 |
| 20260502114612 | 37 | 215 | 2.0 | 4.0 | 0.00 | 0.04 | 0.00 | 96 | 1016.0 |
| 20260502113116 | 36 | 216 | 2.0 | 3.0 | 0.00 | 0.04 | 0.00 | 96 | 1016.0 |
| 20260502111605 | 35 | 0 | 0.0 | 0.0 | 0.00 | 0.04 | 0.00 | 95 | 1016.2 |
| 20260502110107 | 35 | 0 | 0.0 | 0.0 | 0.00 | 0.04 | 0.00 | 96 | 1015.9 |
| 20260502104607 | 34 | 0 | 0.0 | 1.0 | 0.00 | 0.04 | 0.00 | 95 | 1015.9 |
| 20260502103116 | 34 | 0 | 1.0 | 3.0 | 0.00 | 0.04 | 0.00 | 95 | 1015.9 |
| 20260502101611 | 34 | 266 | 1.0 | 3.0 | 0.00 | 0.04 | 0.00 | 95 | 1015.9 |
| 20260502090111 | 35 | 235 | 2.0 | 4.0 | 0.00 | 0.04 | 0.00 | 95 | 1015.9 |
| 20260502080105 | 35 | 201 | 1.0 | 2.0 | 0.00 | 0.04 | 0.00 | 95 | 1015.6 |
| 20260502070105 | 34 | 217 | 2.0 | 4.0 | 0.00 | 0.04 | 0.00 | 94 | 1015.7 |
| 20260502064555 | 34 | 212 | 2.0 | 4.0 | 0.00 | 0.04 | 0.00 | 94 | 1015.7 |
| 20260502063121 | 34 | 207 | 1.0 | 3.0 | 0.00 | 0.04 | 0.00 | 94 | 1015.6 |
| 20260502061555 | 33 | 237 | 2.0 | 3.0 | 0.00 | 0.04 | 0.00 | 93 | 1015.7 |
| 20260502060106 | 34 | 0 | 0.0 | 1.0 | 0.00 | 0.04 | 0.00 | 94 | 1015.7 |
| 20260502054624 | 35 | 0 | 0.0 | 0.0 | 0.00 | 0.04 | 0.00 | 94 | 1015.8 |
| 20260502053101 | 35 | 0 | 0.0 | 1.0 | 0.00 | 0.04 | 0.00 | 93 | 1015.9 |
| 20260502051557 | 35 | 0 | 0.0 | 2.0 | 0.00 | 0.04 | 0.00 | 93 | 1015.9 |
| 20260502050101 | 35 | 0 | 0.0 | 2.0 | 0.00 | 0.04 | 0.00 | 92 | 1015.9 |